Find Local Weather

World > North America > United States > Nevada

Lake Tahoe, Nevada Regional Weather

Lat: 39.17N, Lon: 120.14W
Wx Zone: NVZ002
Feedback

Lake Tahoe, NV Regional Weather

Expires:201905212000;;235516
ASUS45 KREV 211910
RWRNV 
NEVADA REGIONAL WEATHER ROUNDUP
NATIONAL WEATHER SERVICE RENO NV
1200 PM PDT TUE MAY 21 2019

NOTE: "FAIR" INDICATES FEW OR NO CLOUDS BELOW 12,000 FEET WITH NO
SIGNIFICANT WEATHER AND/OR OBSTRUCTIONS TO VISIBILITY.


NVZ002-CAZ072-073-212000-
NORTHERN AND CENTRAL SIERRA
  
CITY           SKY/WX    TMP DP  RH WIND       PRES   REMARKS
S. LAKE TAHOE  CLOUDY    39  29  67 S15       29.80S                  
TRUCKEE        LGT SNOW  36  34  93 W9G20     29.81R                  
SQUAW VLY 8000   N/A     30  28  93 SW15        N/A                   
BLUE CANYON    CLOUDY    35  35 100 VRB6      29.85S FOG              
MAMMOTH LAKES  FAIR      45  20  36 SW15G38   29.75F                  
BRIDGEPORT     CLOUDY    59  20  22 SW16G30   29.75S                  
$$


SKY/WX - Weather  TMP - Temperature  DP - Dew Point  RH - Relative Humidity
WIND - Wind Direction/Speed PRES - Barometric Pressure VSB - Visibility
WCI - Wind Chill Index E13G22 Wind - East Wind 13 mph/Gusts of 22 mph